Location: Newark
(35.8833°N, 14.5000°E)
Time: 23:26:20
(UTC+00:00)

BEESAT - Pass Details

Date: 17 November 2019
Orbit: 700 x 709 km, 98.6° (Epoch: 09 December)

Event Time Altitude Azimuth Distance (km) Brightness Sun altitude
Rises 03:51:21 0° 172° (S) 3,076 ? -21.9°
Reaches altitude 10° 03:53:37 10° 174° (S) 2,161 ? -21.5°
Maximum altitude 03:58:19 69° 258° (WSW) 752 ? -20.5°
Enters shadow 04:01:24 22° 338° (NNW) 1,526 ? -19.9°
